Regional Weather Roundup
Issued by NWS Green Bay, WI

Home | Current Version | Previous Version | Graphics & Text | Print | Product List | Glossary Off
Versions: 1 2 3 4 5 6 7 8 9 10 11 12 13 14 15 16 17 18 19 20 21 22 23 24 25 26 27 28 29 30 31 32 33 34 35 36 37 38 39 40 41 42 43 44 45 46 47 48 49 50

000
ASUS43 KGRB 040600
RWRGRB

NORTH-CENTRAL AND NORTHEAST WISCONSIN REGIONAL WEATHER ROUNDUP
NATIONAL WEATHER SERVICE GREEN BAY WI
1200 AM CST SUN DEC 04 2016

WIZ005-009-010>012-018-019-040700-
NORTH CENTRAL WISCONSIN

CITY           SKY/WX    TMP DP  RH WIND       PRES   REMARKS
IRONWOOD       CLOUDY    27  23  85 S3        30.16F
MANITOWISH WTR NOT AVBL
ARBOR VITAE    NOT AVBL
EAGLE RIVER    NOT AVBL
LAND O LAKES   NOT AVBL
RHINELANDER    CLOUDY    28  21  75 S3        30.17S
PHILLIPS       NOT AVBL
ANTIGO         NOT AVBL
TOMAHAWK       NOT AVBL
MERRILL        NOT AVBL
$$

WIZ013-073-040700-
NORTHEAST WISCONSIN

CITY           SKY/WX    TMP DP  RH WIND       PRES   REMARKS
IRON MOUNTAIN  CLOUDY    30  25  81 CALM      30.17F
MARINETTE      CLOUDY    31  23  72 SW3       30.24F
$$

WIZ017-030-035>037-045-040700-
CENTRAL WISCONSIN

CITY           SKY/WX    TMP DP  RH WIND       PRES   REMARKS
MEDFORD        NOT AVBL
WAUSAU         CLOUDY    27  21  78 SE3       30.18F
MOSINEE        NOT AVBL
MARSHFIELD     CLOUDY    28  21  75 SE6       30.17F
WISC RAPIDS    CLOUDY    28  22  78 SE5       30.21F
STEVENS POINT  NOT AVBL
WAUPACA        NOT AVBL
SHAWANO        NOT AVBL
CLINTONVILLE   NOT AVBL
WAUTOMA        CLOUDY    28  23  81 CALM      30.23F
$$

WIZ038-039-048-051-040700-
FOX VALLEY

CITY           SKY/WX    TMP DP  RH WIND       PRES   REMARKS
NWS GREEN BAY  CLOUDY    33  25  72 S3        30.24S
APPLETON       NOT AVBL
OSHKOSH        MOCLDY    29  23  78 S5        30.24R
FOND DU LAC    CLOUDY    30  23  75 SE5       30.24S
$$

WIZ022-050-052-040700-
EAST CENTRAL WISCONSIN

CITY           SKY/WX    TMP DP  RH WIND       PRES   REMARKS
EPHRAIM        NOT AVBL
WASHINGTON ISL NOT AVBL
STURGEON BAY   CLOUDY    31  24  75 S6        30.24F
MANITOWOC      NOT AVBL
SHEBOYGAN      MOCLDY    30  24  78 CALM      30.25S
$$

LMZ563-521-522-541>543-040700-
LAKESHORE

STATION/POSITION TIME  TEMP    WIND        PRES    VSBY  WAVE
                       AIR SEA DIR/SP/G                  HT/PER
                 (UTC) (F)     (DEG/KT/KT) (MB)    (MI)  (FT/S)
SHEBOYGAN LKSHOR 0500   31     210/  2/  3 1025.1F
KEWAUNEE LKSHORE 0530   32     210/  5/  7 1023.7F
ALGOMA MARINA    0521             CALM       N/A
NORTHPORT PIER   0530   32      CALM  /  2 1023.7S
SISTER BAY LKSHO 0509   33     200/  6/  8   N/A
CHAMBERS ISLAND  0540   32     200/  5/ 10 1023.4S
MENOMINEE LKSHOR 0530   31     210/  5/  7 1023.0F
$$



USA.gov is the U.S. government's official web portal to all federal, state and local government web resources and services.